Flag for U.S.A. Weather past 2 weeks in Hayward, California, U.S.A.

Now
64 °F

Sunny.


Feels Like: 64 °F
Forecast: 45 / 61 °F
Wind: 10 mph from East

Location: Hayward Air Terminal

Current Time: Mar 1, 2015 at 1:09:55 PM

Latest Report: Mar 1, 2015 at 12:54 PM


Visibility: 10 mi

Pressure: 29.98 "Hg

Humidity: 35%

Dew point: 36 °F

Location of HaywardLocation

Historic Weather in Hayward — Graph

°F

Hayward temperature yesterday

Maximum temperature yesterday: 57 °F (at 9:54 AM)
Minimum temperature yesterday: 48 °F (at 11:54 PM)
Average temperature yesterday: 53 °F

Past Weeks' High & Low Weather Summary

 TemperatureHumidityPressure
High71 °F (Feb 16, 1:54 PM)90% (Feb 17, 5:54 AM)30.39 "Hg (Feb 17, 5:54 AM)
Low40 °F (Feb 24, 2:54 AM)18% (Feb 23, 4:54 PM)29.75 "Hg (Feb 28, 3:54 AM)
Average57 °F66%30.05 "Hg
* Reported Feb 14 10:54 AM — Mar 1 10:54 AM, Hayward, Weather by CustomWeather, © 2015

Note: Actual official high and low records may vary slightly from our data, if they occured in-between our weather recording intervals... More about our weather records

Advertising

Hayward weather history for previous 24 hours

 ConditionsComfort  
Time TempWeatherWind HumidityBarometerVisibility
10:54 AM
Sun, Mar 1
62 °FSunny.14 mph34%30.01 "Hg10 mi
9:54 AM57 °FSunny.No wind47%30.02 "Hg10 mi
8:54 AM55 °FSunny.3 mph55%30.02 "Hg10 mi
7:54 AM51 °FSunny.No wind63%30.01 "Hg10 mi
6:54 AM44 °FSunny.5 mph89%30.00 "Hg10 mi
5:54 AM45 °FClear.No wind86%29.98 "Hg10 mi
4:54 AM45 °FClear.No wind90%29.98 "Hg10 mi
3:54 AM45 °FClear.3 mph90%29.97 "Hg10 mi
2:54 AM48 °FClear.5 mph83%29.96 "Hg10 mi
1:54 AM48 °FClear.6 mph83%29.97 "Hg10 mi
12:54 AM48 °FClear.7 mph86%29.96 "Hg10 mi
11:54 PM
Sat, Feb 28
48 °FClear.5 mph89%29.95 "Hg10 mi
10:54 PM50 °FClear.No wind86%29.94 "Hg10 mi
9:54 PM51 °FClear.3 mph86%29.93 "Hg10 mi
8:54 PM52 °FClear.5 mph83%29.91 "Hg10 mi
7:54 PM53 °FLight rain. Mostly cloudy.6 mph77%29.90 "Hg10 mi
7:04 PM54 °FOvercast.3 mph72%29.86 "Hg10 mi
5:54 PM50 °FBroken clouds.13 mph80%29.86 "Hg10 mi
4:54 PM53 °FPartly sunny.6 mph74%29.83 "Hg10 mi
3:54 PM55 °FPassing clouds.3 mph67%29.82 "Hg10 mi
2:54 PM57 °FScattered clouds.N/A60%29.81 "Hg10 mi
1:54 PM52 °FStrong thunderstorms. Broken clouds.7 mph75%29.82 "Hg3 mi
Weather by CustomWeather, © 2015

See weather overviewHow to use our weather pages